Погода в Магнитогорске

Хотите узнать прогноз погоды в Магнитогорске? Тогда Вам сюда: Погода в Магнитогорске

Поиск расширенной информации на нашем сайте:

Полезная информация:

Новости сайта



02.01.2020
Опубликован Долгосрочный прогноз погоды по городам России и ближнего зарубежья на январь 2020 года.
Карты: Прогноз на январь и февраль 2020 года, Сравнение прогнозируемой аномалии приземной температуры воздуха на январь 2020 года по разным моделям.




Погода в Магнитогорске - сегодня

Время (UTC), дата Ветер
(°,м/с) 
Видим.   Явления Облачность Т
(°С)
Тd
(°С)
f(%) Тe
(°С)
Pmin
(гПа)
dP
(гПа)
Po
(мм)
O2
(г/м3)
Тmin Tmax R s Состояние
почвы
12 03.03.21 210 (ЮЗ) 20000 м    10/0 средняя 
[Ac As]
-3.8 -6.6 81 -7  1002.6  0.1  716  293           
15 03.03.21 200 (Ю) 10 км    6/0 средняя 
[Ac trans]
-5.6 -7.1 89 -9  1002.8  0.1  716  295    -3.5       
18 03.03.21 230 (ЮЗ) 10 км    8/0 средняя 
[Ac trans]
-7.4 -8.6 91 -9  1002.7  -0.4  716  297           
21 03.03.21 тихо ()   10 км    9/0 средняя 
[Ac trans]
-9.2 -10.5 90 -9  1002  -1  715  299           
00 04.03.21 тихо ()   10 км    8/0 средняя 
[Ac trans]
-8.8 -10.2 90 -9  1001.4  -0.6  715  299           
03 04.03.21 240 (ЮЗ) 20000 м  {снег}  10/0 средняя 
[Ac As]
-6.2 -8.8 82 -9  1000.9  715  296  -10.6    0.2  32  равномерный
сухой снег
100% 
06 04.03.21 280 (З) 6-11{11}  20000 м  {снег}  3/3 600 м 
[Sc]
-3.5 -10.4 59 -8  1001.2  0.7  715  293           
09 04.03.21 280 (З) 4{12}  20000 м    6/6 600 м 
[Sc]
-3.7 -11.4 55 -7  1002.8  1.6  717  294           
12 04.03.21 200 (Ю) 3{11}  20000 м    ясно 
-4.2 -12 55 -6  1004  1.5  717  295           
15 04.03.21 210 (ЮЗ) 10 км    ясно 
-10.4 -13.7 77 -12  1005.6  0.4  718  302    -2.8       
18 04.03.21 180 (Ю) 7-11{11}  10 км    3/0 средняя 
[Ac trans]
-8.7 -11 83 -14  1003.7  -1.4  717  299           
21 04.03.21 180 (Ю) 6{13}  10 км    8/0 средняя 
[Ac trans]
-7.2 -9.1 86 -12  1001  -2.4  715  297           
00 05.03.21 230 (ЮЗ) 6{12}  10 км    ясно 
-2.9 -5.8 80 -7  1000.2  715  292           
03 05.03.21 230 (ЮЗ) 7-12{14}  20000 м  позёмок  8/8 600 м 
[Sc]
-2 -5.9 75 -6  1001.6  1.4  716  291  -10.5      32  равномерный
мокрый или
старый снег
100% 
06 05.03.21 200 (Ю) 6{12}  20000 м  позёмок  4/4 600 м 
[Sc]
-1.6 -5.7 74 -5  1002.7  1.2  717  291           
09 05.03.21 190 (Ю) 8-11{13}  20000 м    9/9 600 м 
[Sc]
-1.4 -4.2 81 -6  1001.7  -0.9  716  290           
12 05.03.21 210 (ЮЗ) 6-13{13}  20000 м    10/10 600 м 
[Sc]
-0.9 -3.4 83 -5  999.8  -1.7  715  289           
15 05.03.21 210 (ЮЗ) 4{14}  10 км  {снег}  8/8 600 м 
[Sc]
-3.3 -5.9 82 -6  1000.9  0.7  715  292    -0.4  0.0     
18 05.03.21 280 (З) 7-12{12}  10 км  позёмок{снег}  6/6 600 м 
[Sc]
-1.1 -6.1 69 -5  1003.3  2.6  717  291           
21 05.03.21 290 (З) 4{13}  10 км  {снег}  8/8 600 м 
[Sc]
-3.7 -10.4 60 -7  1008  720  295           
00 06.03.21 290 (З) 10 км    4/4 600 м 
[Sc]
-7.9 -13.3 65 -9  1011  2.1  722  301           
03 06.03.21 190 (Ю) 20000 м    ясно 
-13.3 -16.6 76 -13  1013.6  1.4  723  308  -13.5      31  равномерный
мокрый или
старый снег
100% 
06 06.03.21 230 (ЮЗ) 20000 м    ясно 
-7.1 -12.8 64 -10  1013.4  724  300  -13.8         
09 06.03.21 190 (Ю) 20000 м    ясно 
-4.7 -12.2 56 -7  1013.2  0.2  724  298           
12 06.03.21 190 (Ю) 20000 м    ясно 
-6.6 -12.6 62 -10  1013.1  -0.4  724  300           
Время (UTC), дата Ветер
(°,м/с) 
Видим.   Явления Облачность Т
(°С)
Тd
(°С)
f(%) Тe
(°С)
Pmin
(гПа)
dP
(гПа)
Po
(мм)
O2
(г/м3)
Тmin Tmax R s Состояние
почвы

Для получения пояснительной информации подведите курсор к названию столбца.

ПОГОДА в Магнитогорске - архив

Всё, что Вы хотите узнать о погоде в Магнитогорске - удобно и подробно!

Выберите нужную дату (начиная с 1 января 2019* года) и нажмите кнопку "Найти".
Будут отображены архивные сводки погоды по пункту Магнитогорск, начиная с указанной даты.


Отображать данные в формате CSV (для использования в таблицах Excel)


Внимание! Наш архив погоды предназначен исключительно для личного некоммерческого использования в познавательных целях. Если Вам необходимы официальные справки о состоянии погоды (для производственных, юридических, коммерческих и т.п. целей), обращайтесь в органы Росгидромета.

*Примечание: данная дата относится к архиву по метеостанциям СССР (Россия, СНГ, Балтия).
Архив по метеостанциям Зарубежной Европы и Азии (кроме Китая) хранится 10 дней, по другим регионам земного шара (Китай, Африка, Америка, Австралия, Океания) - 1 день.

Магнитогорск - район местоположения метеостанции


Название, широта, долгота, высота метеостанции:
Магнитогорск 53.3°ш. 59.1°д. 384 м над ур. моря [Российская Федерация]

Дополнительная информация

В oтличие oт бoльшинства пoгoдных сайтoв мы публикуем пoдрoбную метеoинфoрмацию в детальнoм прoфессиoнальнoм фoрмате.

Характеристики температуры и влажнoсти вoздуха измеряются на высoте 2 м в тени вдали oт зданий и деревьев.
Скoрoсть ветра измеряется на высoте 10 м (на урoвне рoста челoвека скoрoсть ветра ниже в 1.5-2 раза). Если метеoстанция нахoдится в гoрoде или в лесу, тo скoрoсть ветра занижена на 2-4 м/с пo сравнению с oткрытым местoм. Скoрoсть ветра над акватoриями крупных рек и oзёр, а также на вершинах хoлмoв на 2-5 м/с выше, чем в oбычных услoвиях.
Атмoсфернoе давление в разных тoчках местнoсти мoжет значительнo oтличаться oт давления на метеoстанции, в зависимoсти oт услoвий рельефа (при пoдъёме на 10 м давление пoнижается примернo на 1 мм рт.ст.).